Location: *
(58.4167°N, 22.5000°E)
Time: 07:01:57
(UTC+00:00)

Cosmos 1833 Rocket - Pass Details

Date: 22 September 2019
Orbit: 834 x 838 km, 71.0° (Epoch: 21 October)

Event Time Altitude Azimuth Distance (km) Brightness Sun altitude
Rises 20:17:08 0° 316° (NW) 3,395 7.1 -26.4°
Reaches altitude 10° 20:19:46 10° 325° (NW) 2,459 6.1 -26.6°
Maximum altitude 20:25:00 38° 32° (NNE) 1,269 3.7 -27.0°
Enters shadow 20:26:20 33° 63° (ENE) 1,377 3.7 -27.1°
